sat.trackr.live / text

‹ back to catalog

STARLINK-33836

NORAD 63642 · 2025-083J

PAYLOAD ACTIVE UNKNOWN

§ Identity

Operator
Country
US
Launch date
2025-04-25
Launch site
AFETR
Launch vehicle
Mass (kg)
RCS (m²)

Purposes: comms

External: N2YO · Heavens-Above · Gunter

§ Orbital elements

Epoch: 2026-05-25T03:00:18.230400Z

Period
94.27 min
Inclination
43.0018°
Eccentricity
0.0001438
Mean motion
15.27586961 rev/d
Perigee alt
482.0 km
Apogee alt
484.0 km
Semi-major
6,861.2 km
B*
4.9857e-4
RAAN
293.8065°
Arg perigee
268.0190°
Mean anomaly
92.0497°
Rev number
6,175

§ Raw data

STARLINK-338361 63642U 25083J   26145.12521100  .00013485  00000+0  49857-3 0  99952 63642  43.0018 293.8065 0001438 268.0190  92.0497 15.27586961 61754

JSON: /api/v1/satellites/63642 · /tle

For live sub-satellite position, see the globe view (requires WebGL).

§ Visibility from observer

Set your observer location to see the next 7 days of passes ≥ 10°. The values pass through the URL so the page stays shareable.

No JS? Fill the form by hand. The geolocation button needs JavaScript.